Regional Weather Roundup
Issued by NWS Midland/Odessa, TX

Skip options and go directly to product.
Home | Oldest Version | Next Version | Current Version | All | Text Only | Save Text | Print | Product List | Glossary On

Skip product version selection by date and time.   
368
ASUS44 KMAF 241410
RWRMAF
MIDLAND AREA WEATHER ROUNDUP
NATIONAL WEATHER SERVICE MIDLAND TX
800 AM CST FRI FEB 24 2017

...IN SOUTHWEST TEXAS AND SOUTHEAST NEW MEXICO...

CITY           SKY/WX    TMP DP  RH WIND       PRES   REMARKS
ALPINE         CLEAR     53  19  26 SW12      30.00R
ANDREWS        FAIR      38  19  47 N9        29.92R WCI  31
ARTESIA        CLEAR     34  10  37 CALM      29.92R
BIG SPRING     CLEAR     42  30  62 NE12      29.93R WCI  36
CARLSBAD       CLEAR     50   8  18 NW21G30   29.88R
DRYDEN           N/A     50  24  36 W5        29.84R
FORT STOCKTON  CLEAR     50  10  20 NW9       29.90R
GUAD PASS      CLEAR     42   8  24 W28G35    29.94R WCI  32
HOBBS          CLEAR     32   9  37 NW5       29.91R WCI  27
MARFA          CLEAR     44  20  38 W12       29.98R WCI  38
MIDLAND AIRPK  CLEAR     45  20  36 N10G16    29.92R WCI  40
MIDLAND INTL   CLEAR     47  14  26 N13       29.90R
ODESSA         CLEAR     46  12  25 N8        29.90R
PECOS          CLEAR     41  10  27 CALM      29.90R
PRESIDIO       FAIR      55  19  24 CALM      29.94R
SEMINOLE       CLEAR     35  25  66 NE6       29.93R WCI  30
SNYDER         CLEAR     38  29  70 N10       29.91R WCI  31
WINK           CLEAR     39  12  33 VRB5      29.89R WCI  36
$$
...OTHER STATIONS IN TEXAS...

CITY           SKY/WX    TMP DP  RH WIND       PRES   REMARKS
ABILENE        CLEAR     40  35  83 N14       29.90R WCI  32
AMARILLO       CLEAR     26  19  74 N16G26    29.91R WCI  14
AUSTIN         MOSUNNY   60  58  92 CALM      29.73R
BROWNSVILLE    SUNNY     71  68  90 S10       29.69R
CORPUS CHRISTI MOSUNNY   67  66  97 NW5       29.71R
DALLAS FTW     CLOUDY    49  40  71 NW22      29.78R
DEL RIO        CLEAR     49  43  80 CALM      29.77R
EL PASO        CLEAR     44  11  26 VRB5      29.98R
HOUSTON INT    PTSUNNY   65  63  93 E6        29.75R
LUBBOCK        CLEAR     32  24  72 N9        29.91R WCI  24
SAN ANGELO     CLEAR     46  33  60 E3        29.86R
SAN ANTONIO    MOSUNNY   58  56  93 W7        29.75R
WACO           MOSUNNY   56  46  69 N18       29.76R
WICHITA FALLS  NOT AVBL
$$
...OTHER LOCATIONS IN NEW MEXICO...

CITY           SKY/WX    TMP DP  RH WIND       PRES   REMARKS
ALAMAGORDO     CLEAR     39   5  24 CALM      29.97R
ALBUQUERQUE    PTCLDY    30  18  60 SW7       29.93R WCI  23
CANNON AFB     CLEAR     25  25 100 N3        29.90R
CLOVIS         CLEAR     25  19  80 N6        29.90R WCI  18
HOLLOMAN AFB   CLEAR     35  10  35 N9        30.00R WCI  27
ROSWELL        CLEAR     41   6  23 NW7         N/A  WCI  36
RUIDOSO        CLEAR     28  -4  24 W12G17    29.93R WCI  18
SANTA FE       CLEAR     20  10  65 NW3       29.88R
TRUTH OR CONSE CLEAR     33   8  35 CALM      29.96R
TUCUMCARI      PTCLDY    24  21  88 E3        29.90R
$$

  • National Weather Service
  • Southern Region Headquarters
  • 819 Taylor Street, Room 10A06
  • Fort Worth, TX 76102
  • Page Author: NWS Fort Worth
  • Web Master: SR-SRH.Webmaster@noaa.gov
  •  
  • Page last modified: 30-Sep-2016 6:36 PM UTC
USA.gov is the U.S. government's official web portal to all federal, state and local government web resources and services.